• In Austria
  • List of Countries
  • For 7 days
  • Water Temperature
  • Satellite Maps
  • Weather Map
  • News
  • Weather Widgets
  • user-avatar
    Login

    Hourly Weather San Juan

    Today, 20 May, Sunday

    Time Temperature Precipitation Wind Pressure Humidity
    00:00 +15°C° 0 mm 1 mps 707 mmHg 38%
    01:00 +15°C° 0 mm 1 mps 706 mmHg 37%
    02:00 +14°C° 0 mm 1 mps 706 mmHg 38%
    03:00 +14°C° 0 mm 1 mps 706 mmHg 38%
    04:00 +14°C° 0 mm 1 mps 705 mmHg 39%
    05:00 +14°C° 0 mm 1 mps 705 mmHg 38%
    06:00 +14°C° 0 mm 1 mps 705 mmHg 37%
    07:00 +15°C° 0 mm 1 mps 706 mmHg 36%
    08:00 +18°C° 0 mm 1 mps 706 mmHg 31%
    09:00 +20°C° 0 mm 1 mps 706 mmHg 26%
    10:00 +23°C° 0 mm 1 mps 706 mmHg 22%
    11:00 +24°C° 0 mm 1 mps 705 mmHg 20%
    12:00 +25°C° 0 mm 2 mps 704 mmHg 18%
    13:00 +26°C° 0 mm 2 mps 704 mmHg 17%
    14:00 +25°C° 0 mm 2 mps 704 mmHg 17%
    15:00 +25°C° 0 mm 2 mps 703 mmHg 18%
    16:00 +24°C° 0 mm 2 mps 703 mmHg 19%
    17:00 +23°C° 0 mm 2 mps 703 mmHg 23%
    18:00 +20°C° 0 mm 2 mps 704 mmHg 28%
    19:00 +18°C° 0 mm 2 mps 704 mmHg 32%
    20:00 +17°C° 0 mm 2 mps 704 mmHg 34%
    21:00 +17°C° 0 mm 2 mps 705 mmHg 37%
    22:00 +16°C° 0 mm 3 mps 705 mmHg 39%
    23:00 +16°C° 0 mm 3 mps 706 mmHg 43%

    Tomorrow, 21 May, Monday

    Time Temperature Precipitation Wind Pressure Humidity
    00:00 +14°C° 0 mm 3 mps 706 mmHg 48%
    01:00 +13°C° 0 mm 3 mps 706 mmHg 52%
    02:00 +12°C° 0 mm 4 mps 706 mmHg 56%
    03:00 +12°C° 0 mm 4 mps 706 mmHg 60%
    04:00 +10°C° 0 mm 5 mps 706 mmHg 64%
    05:00 +11°C° 0 mm 4 mps 707 mmHg 65%
    06:00 +11°C° 0 mm 3 mps 707 mmHg 67%
    07:00 +12°C° 0 mm 2 mps 708 mmHg 68%
    08:00 +12°C° 0 mm 3 mps 708 mmHg 63%
    09:00 +14°C° 0 mm 3 mps 708 mmHg 58%
    10:00 +16°C° 0 mm 3 mps 708 mmHg 53%
    11:00 +17°C° 0 mm 3 mps 708 mmHg 51%
    12:00 +18°C° 0 mm 3 mps 707 mmHg 48%
    13:00 +18°C° 0 mm 2 mps 707 mmHg 45%
    14:00 +18°C° 0 mm 2 mps 706 mmHg 46%
    15:00 +18°C° 0 mm 2 mps 706 mmHg 47%
    16:00 +18°C° 0 mm 2 mps 706 mmHg 47%
    17:00 +17°C° 0 mm 2 mps 706 mmHg 52%
    18:00 +16°C° 0 mm 2 mps 707 mmHg 57%
    19:00 +15°C° 0 mm 2 mps 707 mmHg 62%
    20:00 +15°C° 0 mm 2 mps 707 mmHg 63%
    21:00 +14°C° 0 mm 2 mps 708 mmHg 65%
    22:00 +14°C° 0 mm 2 mps 708 mmHg 66%
    23:00 +14°C° 0 mm 2 mps 708 mmHg 68%

    Day after tomorrow, 22 May, Tuesday

    Time Temperature Precipitation Wind Pressure Humidity
    00:00 +13°C° 0 mm 2 mps 708 mmHg 69%
    01:00 +13°C° 0 mm 2 mps 708 mmHg 70%
    02:00 +12°C° 0 mm 2 mps 708 mmHg 72%
    03:00 +12°C° 0 mm 2 mps 708 mmHg 74%
    04:00 +12°C° 0 mm 2 mps 708 mmHg 76%
    05:00 +12°C° 0 mm 1 mps 708 mmHg 76%
    06:00 +12°C° 0 mm 1 mps 709 mmHg 75%
    07:00 +12°C° 0 mm 1 mps 709 mmHg 75%
    08:00 +14°C° 0 mm 1 mps 710 mmHg 66%
    09:00 +15°C° 0 mm 1 mps 710 mmHg 58%
    10:00 +18°C° 0 mm 1 mps 710 mmHg 49%
    11:00 +19°C° 0 mm 1 mps 709 mmHg 45%
    12:00 +19°C° 0 mm 2 mps 709 mmHg 41%
    13:00 +20°C° 0 mm 2 mps 708 mmHg 37%
    14:00 +20°C° 0 mm 2 mps 708 mmHg 37%
    15:00 +20°C° 0 mm 2 mps 708 mmHg 37%
    16:00 +20°C° 0 mm 2 mps 707 mmHg 37%
    17:00 +20°C° 0 mm 1 mps 708 mmHg 41%
    18:00 +19°C° 0 mm 1 mps 708 mmHg 45%
    19:00 +16°C° 0 mm 1 mps 708 mmHg 49%
    20:00 +16°C° 0 mm 1 mps 708 mmHg 51%
    21:00 +15°C° 0 mm 1 mps 708 mmHg 52%
    22:00 +15°C° 0 mm 1 mps 708 mmHg 54%
    23:00 +15°C° 0 mm 1 mps 708 mmHg 55%

    23 May, Wednesday

    Time Temperature Precipitation Wind Pressure Humidity
    00:00 +14°C° 0 mm 1 mps 707 mmHg 57%
    01:00 +14°C° 0 mm 1 mps 707 mmHg 58%
    02:00 +14°C° 0 mm 1 mps 707 mmHg 60%
    03:00 +13°C° 0 mm 1 mps 707 mmHg 61%
    04:00 +13°C° 0 mm 1 mps 707 mmHg 63%
    05:00 +13°C° 0 mm 1 mps 707 mmHg 62%
    06:00 +13°C° 0 mm 1 mps 708 mmHg 62%
    07:00 +13°C° 0 mm 1 mps 708 mmHg 61%
    08:00 +15°C° 0 mm 1 mps 708 mmHg 54%
    09:00 +19°C° 0 mm 1 mps 709 mmHg 47%
    10:00 +21°C° 0 mm 1 mps 709 mmHg 40%
    11:00 +22°C° 0 mm 1 mps 709 mmHg 37%
    12:00 +23°C° 0 mm 2 mps 708 mmHg 34%
    13:00 +23°C° 0 mm 2 mps 707 mmHg 31%
    14:00 +23°C° 0 mm 2 mps 708 mmHg 32%
    15:00 +23°C° 0 mm 2 mps 708 mmHg 32%
    16:00 +23°C° 0 mm 2 mps 708 mmHg 33%
    17:00 +20°C° 0 mm 2 mps 708 mmHg 39%
    18:00 +19°C° 0 mm 2 mps 709 mmHg 44%
    19:00 +19°C° 0 mm 1 mps 709 mmHg 50%
    20:00 +18°C° 0 mm 1 mps 709 mmHg 52%
    21:00 +16°C° 0 mm 1 mps 709 mmHg 55%
    22:00 +15°C° 0 mm 0 mps 709 mmHg 57%
    23:00 +15°C° 0 mm 1 mps 709 mmHg 57%

    24 May, Thursday

    Time Temperature Precipitation Wind Pressure Humidity
    00:00 +15°C° 0 mm 1 mps 709 mmHg 57%
    01:00 +15°C° 0 mm 1 mps 708 mmHg 57%
    02:00 +15°C° 0 mm 1 mps 708 mmHg 57%
    03:00 +15°C° 0 mm 2 mps 708 mmHg 57%
    04:00 +14°C° 0 mm 2 mps 708 mmHg 57%
    05:00 +15°C° 0 mm 2 mps 708 mmHg 56%
    06:00 +15°C° 0 mm 2 mps 708 mmHg 54%
    07:00 +15°C° 0 mm 2 mps 708 mmHg 53%
    08:00 +17°C° 0 mm 2 mps 708 mmHg 46%
    09:00 +19°C° 0 mm 2 mps 709 mmHg 39%
    10:00 +23°C° 0 mm 2 mps 709 mmHg 31%
    11:00 +24°C° 0 mm 2 mps 708 mmHg 28%
    12:00 +25°C° 0 mm 2 mps 707 mmHg 25%
    13:00 +26°C° 0 mm 2 mps 706 mmHg 22%
    14:00 +25°C° 0 mm 2 mps 706 mmHg 23%
    15:00 +25°C° 0 mm 2 mps 706 mmHg 23%
    16:00 +25°C° 0 mm 2 mps 706 mmHg 24%
    17:00 +23°C° 0 mm 2 mps 706 mmHg 30%
    18:00 +20°C° 0 mm 2 mps 707 mmHg 36%
    19:00 +18°C° 0 mm 2 mps 707 mmHg 42%
    20:00 +19°C° 0 mm 1 mps 707 mmHg 45%
    21:00 +18°C° 0 mm 1 mps 707 mmHg 48%
    22:00 +16°C° 0 mm 1 mps 707 mmHg 51%
    23:00 +16°C° 0 mm 1 mps 707 mmHg 52%

    25 May, Friday

    Time Temperature Precipitation Wind Pressure Humidity
    00:00 +15°C° 0 mm 1 mps 707 mmHg 53%
    01:00 +15°C° 0 mm 1 mps 706 mmHg 54%
    02:00 +15°C° 0 mm 1 mps 706 mmHg 54%
    03:00 +14°C° 0 mm 1 mps 706 mmHg 53%
    04:00 +14°C° 0 mm 1 mps 706 mmHg 53%
    05:00 +15°C° 0 mm 1 mps 706 mmHg 51%
    06:00 +15°C° 0 mm 1 mps 706 mmHg 49%
    07:00 +15°C° 0 mm 2 mps 706 mmHg 47%
    08:00 +17°C° 0 mm 2 mps 706 mmHg 40%
    09:00 +20°C° 0 mm 2 mps 706 mmHg 33%
    10:00 +24°C° 0 mm 3 mps 706 mmHg 26%
    11:00 +25°C° 0 mm 3 mps 705 mmHg 23%
    12:00 +26°C° 0 mm 3 mps 704 mmHg 20%
    13:00 +27°C° 0 mm 3 mps 704 mmHg 17%
    14:00 +26°C° 0 mm 2 mps 703 mmHg 18%
    15:00 +26°C° 0 mm 2 mps 703 mmHg 19%
    16:00 +25°C° 0 mm 1 mps 703 mmHg 20%
    17:00 +23°C° 0 mm 1 mps 703 mmHg 24%
    18:00 +21°C° 0 mm 1 mps 703 mmHg 27%
    19:00 +20°C° 0 mm 1 mps 704 mmHg 30%
    20:00 +19°C° 0 mm 1 mps 703 mmHg 29%
    21:00 +18°C° 0 mm 2 mps 703 mmHg 29%
    22:00 +18°C° 0 mm 2 mps 703 mmHg 28%
    23:00 +18°C° 0 mm 3 mps 703 mmHg 27%
    Show more